Weather reports worldwide

Advertisment
Edinburgh/Gogarbank, United Kingdom (3166): temperature & dewpoint: 16.01.2019 03:00:00 - 22.01.2019 03:00:00 (GMT)Edinburgh/Gogarbank, United Kingdom (3166): temperature -20cm & temperature -100cm: 16.01.2019 03:00:00 - 22.01.2019 03:00:00 (GMT)Edinburgh/Gogarbank, United Kingdom (3166): wind speed & gusts: 16.01.2019 03:00:00 - 22.01.2019 03:00:00 (GMT)Edinburgh/Gogarbank, United Kingdom (3166): wind direction: 16.01.2019 03:00:00 - 22.01.2019 03:00:00 (GMT)Edinburgh/Gogarbank, United Kingdom (3166): reduced air pressure: 16.01.2019 03:00:00 - 22.01.2019 03:00:00 (GMT)Edinburgh/Gogarbank, United Kingdom (3166): visibility: 16.01.2019 03:00:00 - 22.01.2019 03:00:00 (GMT)Edinburgh/Gogarbank, United Kingdom (3166): sunshine duration: 16.01.2019 03:00:00 - 22.01.2019 03:00:00 (GMT)Edinburgh/Gogarbank, United Kingdom (3166): precipitation: 16.01.2019 03:00:00 - 22.01.2019 03:00:00 (GMT)
Date & Time tt [°C] td [°C] tt -20cm [°C] tt -100cm [°C] ff [km/h] ff [kn] fx [km/h] fx [kn] dd ppp [hPa] vv [km] sd [min] rr [mm]
22.01.2019 03:00:00 1,5 0,4 - - 18 10 - - WSW 997,6 30 0 0,0
22.01.2019 02:00:00 2,0 0,9 - - 18 10 - - WSW 998,0 35 0 0,0
22.01.2019 01:00:00 2,4 0,9 - - 18 10 - - WSW 998,8 40 0 0,0
22.01.2019 00:00:00 2,7 0,9 - - 15 8 - - WSW 998,9 50 - 0,0
21.01.2019 23:00:00 3,0 0,9 - - 18 10 - - W 998,9 55 0 0,0
21.01.2019 22:00:00 3,5 1,9 - - 22 12 - - SW 999,0 35 0 0,0
21.01.2019 21:00:00 3,8 2,3 - - 15 8 - - SSW 999,7 20 0 0,6
21.01.2019 20:00:00 4,3 2,5 - - 15 8 - - SSW 1000,9 10 0 0,4
21.01.2019 19:00:00 4,5 2,0 - - 18 10 - - SSW 1002,0 25 0 0,0
21.01.2019 18:00:00 4,5 0,9 - - 21 11 - - S 1003,7 30 0 0,0
21.01.2019 17:00:00 4,6 0,5 - - 21 11 - - S 1005,7 35 0 0,0
21.01.2019 16:00:00 4,6 0,7 - - 18 10 - - SSW 1007,8 35 0 0,0
21.01.2019 15:00:00 4,8 0,4 - - 18 10 - - SSW 1009,6 35 0 0,0
21.01.2019 14:00:00 4,4 0,7 - - 16 9 - - SSW 1011,7 30 0 0,0
21.01.2019 13:00:00 3,9 1,1 - - 16 9 - - SSW 1013,7 40 0 0,0
21.01.2019 12:00:00 4,0 1,0 - - 21 11 - - SSW 1015,1 35 0 0,0
21.01.2019 11:00:00 3,7 0,3 - - 16 9 - - SSW 1017,0 30 0 0,0
21.01.2019 10:00:00 3,3 -0,3 - - 13 7 - - SSW 1017,9 30 0 0,0
21.01.2019 09:00:00 2,9 -1,1 5,2 6,9 11 6 - - SSW 1019,1 30 0 0,0
21.01.2019 08:00:00 2,3 -1,4 - - 15 8 - - SW 1019,9 35 0 0,0
21.01.2019 07:00:00 -2,5 -3,3 - - 4 2 - - WNW 1020,8 27 0 0,0
21.01.2019 06:00:00 -1,7 -3,9 - - 5 3 - - NNW 1021,4 28 0 0,0
21.01.2019 05:00:00 -1,0 -1,0 - - 8 4 - - SW 1022,2 35 0 0,0
21.01.2019 04:00:00 -3,1 -3,7 - - 0 0 - - N 1022,7 35 0 0,0
21.01.2019 03:00:00 -3,3 -4,3 - - 4 2 - - W 1023,4 28 0 0,0
21.01.2019 02:00:00 -2,7 -3,4 - - 5 3 - - WSW 1024,0 30 0 0,0
21.01.2019 01:00:00 -1,8 -2,9 - - 2 1 - - NNW 1024,2 30 0 0,0
21.01.2019 00:00:00 -0,8 -2,2 - - 4 2 - - SSE 1024,3 40 - 0,0
20.01.2019 23:00:00 0,2 -2,1 - - 2 1 - - WSW 1024,6 30 0 0,0
20.01.2019 22:00:00 1,4 -0,6 - - 13 7 - - SW 1024,4 27 0 0,0
20.01.2019 21:00:00 1,3 -0,7 - - 9 5 - - WSW 1024,0 30 0 0,0
20.01.2019 20:00:00 1,4 -0,3 - - 11 6 - - SSW 1023,1 23 0 0,0
20.01.2019 19:00:00 1,9 0,1 - - 8 4 - - SSW 1022,3 22 0 0,0
20.01.2019 18:00:00 2,3 0,5 - - 8 4 - - WSW 1022,1 16 0 0,0
20.01.2019 17:00:00 3,5 2,1 - - 11 6 - - WSW 1021,1 13 0 0,0
20.01.2019 16:00:00 4,5 2,7 - - 9 5 - - SW 1020,0 12 6 0,0
20.01.2019 15:00:00 4,9 3,2 - - 8 4 - - WSW 1019,2 10 0 0,0
20.01.2019 14:00:00 4,6 3,0 - - 13 7 - - W 1018,9 10 0 0,0
20.01.2019 13:00:00 4,4 3,0 - - 16 9 - - WSW 1018,4 8 0 0,0
20.01.2019 12:00:00 4,0 2,6 - - 16 9 - - WSW 1017,9 12 0 0,0
20.01.2019 11:00:00 3,0 1,9 - - 13 7 - - WSW 1017,5 9 0 0,0
20.01.2019 10:00:00 2,1 0,9 - - 18 10 - - W 1017,2 7 0 0,0
20.01.2019 09:00:00 1,9 0,8 5,4 7,0 9 5 - - WSW 1016,3 6 0 0,0
20.01.2019 08:00:00 1,8 0,7 - - 11 6 - - W 1015,9 7 0 0,0
20.01.2019 07:00:00 1,8 0,3 - - 11 6 - - W 1015,2 8 0 0,0
20.01.2019 06:00:00 1,9 0,4 - - 9 5 - - WSW 1014,6 9 0 0,0
20.01.2019 05:00:00 1,8 0,3 - - 9 5 - - SW 1014,2 11 0 0,0
20.01.2019 04:00:00 1,8 0,2 - - 11 6 - - SW 1013,8 13 0 0,0
20.01.2019 03:00:00 2,1 0,5 - - 11 6 - - W 1013,7 15 0 0,0
20.01.2019 02:00:00 2,1 0,7 - - 5 3 - - WSW 1013,1 12 0 0,0
20.01.2019 01:00:00 2,1 0,7 - - 4 2 - - S 1012,9 14 0 0,0
20.01.2019 00:00:00 1,9 0,7 - - 5 3 - - NNW 1012,5 15 - 0,0
19.01.2019 23:00:00 2,0 0,5 - - 4 2 - - WNW 1012,4 22 0 0,0
19.01.2019 22:00:00 2,0 0,7 - - 8 4 - - WNW 1011,9 14 0 0,0
19.01.2019 21:00:00 2,0 0,4 - - 5 3 - - SW 1011,4 15 0 0,0
19.01.2019 20:00:00 2,2 0,4 - - 8 4 - - S 1011,0 13 0 0,0
19.01.2019 19:00:00 2,4 0,5 - - 4 2 - - S 1010,6 14 0 0,0
19.01.2019 18:00:00 2,5 0,5 - - 5 3 - - SSE 1010,2 14 0 0,0
19.01.2019 17:00:00 2,6 0,6 - - 4 2 - - E 1009,7 15 0 0,0
19.01.2019 16:00:00 3,0 0,7 - - 5 3 - - E 1009,3 13 0 0,0
19.01.2019 15:00:00 3,4 0,9 - - 2 1 - - ENE 1009,0 12 0 0,0
19.01.2019 14:00:00 3,4 1,0 - - 5 3 - - ENE 1009,0 14 0 0,0
19.01.2019 13:00:00 3,4 0,7 - - 5 3 - - E 1009,1 19 0 0,0
19.01.2019 12:00:00 2,1 1,0 - - 5 3 - - WNW 1009,3 6 0 0,0
19.01.2019 11:00:00 2,4 1,3 - - 2 1 - - SSE 1009,3 7 0 0,0
19.01.2019 10:00:00 1,1 0,6 - - 2 1 - - S 1009,1 5 0 0,0
19.01.2019 09:00:00 0,3 0,1 5,2 7,2 2 1 - - WSW 1008,5 3,6 0 0,0
19.01.2019 08:00:00 0,0 -0,5 - - 2 1 - - WNW 1007,9 3,6 0 0,0
19.01.2019 07:00:00 0,4 -0,3 - - 4 2 - - SE 1007,5 3,2 0 0,0
19.01.2019 06:00:00 1,2 0,4 - - 4 2 - - SE 1007,3 5 0 0,0
19.01.2019 05:00:00 1,1 0,4 - - 4 2 - - W 1007,4 5 0 0,0
19.01.2019 04:00:00 1,3 0,4 - - 2 1 - - W 1007,5 6 0 0,0
19.01.2019 03:00:00 1,5 0,4 - - 2 1 - - SSW 1007,7 6 0 0,0
19.01.2019 02:00:00 1,7 0,1 - - 2 1 - - ESE 1007,7 8 0 0,0
19.01.2019 01:00:00 1,8 0,1 - - 5 3 - - ENE 1007,8 9 0 0,0
19.01.2019 00:00:00 1,9 0,0 - - 8 4 - - E 1008,2 11 - 0,0
18.01.2019 23:00:00 1,8 0,1 - - 8 4 - - E 1008,2 7 0 0,0
18.01.2019 22:00:00 1,3 0,2 - - 8 4 - - ENE 1008,3 8 0 0,0
18.01.2019 21:00:00 2,1 -0,6 - - 9 5 - - E 1008,2 14 0 0,0
18.01.2019 20:00:00 2,2 -0,7 - - 9 5 - - E 1008,4 13 0 0,0
18.01.2019 19:00:00 2,3 -1,1 - - 11 6 - - E 1008,5 20 0 0,0
18.01.2019 18:00:00 2,3 -1,7 - - 13 7 - - E 1008,6 25 0 0,0
18.01.2019 17:00:00 2,5 -2,8 - - 11 6 - - E 1009,0 35 0 0,0
18.01.2019 16:00:00 2,5 -3,3 - - 9 5 - - E 1009,6 35 0 0,0
18.01.2019 15:00:00 2,8 -3,7 - - 8 4 - - SE 1009,7 25 0 0,0
18.01.2019 14:00:00 3,6 -4,5 - - 11 6 - - ESE 1010,3 30 60 0,0
18.01.2019 13:00:00 3,7 -4,4 - - 9 5 - - E 1010,8 30 54 0,0
18.01.2019 12:00:00 4,8 -3,8 - - 2 1 - - SE 1011,6 30 60 0,0
18.01.2019 11:00:00 2,5 -4,1 - - 9 5 - - E 1012,2 30 60 0,0
18.01.2019 10:00:00 -0,8 -3,9 - - 5 3 - - ENE 1012,6 30 30 0,0
18.01.2019 09:00:00 -1,0 -4,2 5,7 7,2 5 3 - - SE 1012,8 35 0 0,0
18.01.2019 08:00:00 -1,2 -4,3 - - 4 2 - - ESE 1013,0 30 0 0,0
18.01.2019 07:00:00 -3,4 -5,3 - - 4 2 - - SSE 1013,3 30 0 0,0
18.01.2019 06:00:00 -3,6 -5,5 - - 4 2 - - NE 1013,7 26 0 0,0
18.01.2019 05:00:00 -2,0 -3,2 - - 4 2 - - WNW 1014,0 30 0 0,0
18.01.2019 04:00:00 -2,6 -3,6 - - 4 2 - - WNW 1014,4 24 0 0,0
18.01.2019 03:00:00 -2,7 -3,9 - - 2 1 - - E 1015,2 35 0 0,0
18.01.2019 02:00:00 -2,8 -4,0 - - 0 0 - - N 1015,6 35 0 0,0
18.01.2019 01:00:00 -2,0 -3,5 - - 4 2 - - E 1016,2 35 0 0,0
18.01.2019 00:00:00 -1,3 -3,1 - - 4 2 - - SW 1016,5 35 - 0,0
17.01.2019 23:00:00 -0,9 -3,2 - - 4 2 - - NW 1016,9 35 0 0,0
17.01.2019 22:00:00 0,2 -2,7 - - 5 3 - - S 1017,1 35 0 0,0
17.01.2019 21:00:00 -0,1 -3,0 - - 5 3 - - S 1017,3 40 0 0,0
17.01.2019 20:00:00 0,1 -3,4 - - 2 1 - - W 1017,1 28 0 0,0
17.01.2019 19:00:00 0,6 -3,0 - - 11 6 - - SW 1016,9 35 0 0,0
17.01.2019 18:00:00 0,6 -3,4 - - 5 3 - - WSW 1016,4 30 0 0,0
17.01.2019 17:00:00 1,2 -3,6 - - 9 5 - - SSW 1016,2 30 0 0,0
17.01.2019 16:00:00 2,2 -3,1 - - 9 5 - - WSW 1016,1 20 18 0,0
17.01.2019 15:00:00 4,4 -3,1 - - 9 5 - - W 1015,5 23 54 0,0
17.01.2019 14:00:00 4,5 -2,9 - - 13 7 - - W 1015,1 27 54 0,0
17.01.2019 13:00:00 4,3 -2,8 - - 13 7 - - WNW 1014,7 30 54 0,0
17.01.2019 12:00:00 3,7 -2,9 - - 8 4 - - WNW 1014,3 35 60 0,0
17.01.2019 11:00:00 2,5 -3,4 - - 8 4 - - W 1013,7 40 60 0,0
17.01.2019 10:00:00 1,3 -3,4 - - 18 10 - - WNW 1012,7 35 36 0,0
17.01.2019 09:00:00 0,8 -4,0 6,4 7,2 18 10 - - WNW 1012,0 35 0 0,0
17.01.2019 08:00:00 0,8 -4,2 - - 16 9 - - WNW 1010,8 40 0 0,0
17.01.2019 07:00:00 0,4 -4,8 - - 16 9 - - W 1009,9 40 0 0,0
17.01.2019 06:00:00 0,5 -5,1 - - 18 10 - - W 1008,5 40 0 0,0
17.01.2019 05:00:00 0,2 -4,7 - - 16 9 - - WNW 1007,4 35 0 0,0
17.01.2019 04:00:00 0,5 -4,7 - - 24 13 - - W 1006,7 40 0 0,0
17.01.2019 03:00:00 0,6 -4,7 - - 18 10 - - WNW 1005,9 35 0 0,0
17.01.2019 02:00:00 0,9 -5,1 - - 13 7 - - NW 1005,2 40 0 0,0
17.01.2019 01:00:00 1,7 -5,6 - - 26 14 - - NW 1004,2 40 0 0,0
17.01.2019 00:00:00 2,8 -3,8 - - 21 11 52 28 NNW 1003,1 50 - 0,0
16.01.2019 23:00:00 3,9 -1,6 - - 22 12 - - NNW 1001,7 - 0 0,0
16.01.2019 22:00:00 3,3 0,6 - - 13 7 - - W 999,7 55 0 0,0
16.01.2019 21:00:00 3,1 0,7 - - 16 9 - - W 998,4 40 0 0,0
16.01.2019 20:00:00 2,8 0,8 - - 21 11 - - WSW 997,3 50 0 0,0
16.01.2019 19:00:00 2,9 0,8 - - 22 12 - - WSW 996,6 50 0 0,0
16.01.2019 18:00:00 3,4 0,8 - - 21 11 - - WSW 996,1 50 0 0,0
16.01.2019 17:00:00 3,8 1,2 - - 26 14 - - WSW 995,2 30 0 0,0
16.01.2019 16:00:00 4,2 1,7 - - 22 12 - - WSW 995,3 30 0 0,0
16.01.2019 15:00:00 5,5 1,9 - - 24 13 - - WSW 994,8 30 30 0,0
16.01.2019 14:00:00 5,6 2,2 - - 18 10 - - WSW 995,0 30 60 0,0
16.01.2019 13:00:00 4,8 2,5 - - 24 13 50 27 WSW 995,0 30 30 0,0
16.01.2019 12:00:00 6,1 2,1 - - 24 13 48 26 WSW 995,3 30 60 0,0
16.01.2019 11:00:00 5,3 2,1 - - 29 16 - - WSW 995,5 30 42 0,0
16.01.2019 10:00:00 5,4 2,5 - - 22 12 46 25 WSW 995,4 27 0 0,0
16.01.2019 09:00:00 5,7 2,4 6,7 7,2 26 14 - - W 995,3 28 0 0,0
16.01.2019 08:00:00 6,6 4,3 - - 24 13 - - WSW 994,8 26 0 0,0
16.01.2019 07:00:00 6,6 4,7 - - 21 11 - - WSW 994,4 30 0 0,0
16.01.2019 06:00:00 6,7 5,2 - - 28 15 - - WSW 994,9 17 0 0,2
16.01.2019 05:00:00 7,0 5,9 - - 22 12 50 27 W 995,1 21 0 1,2
16.01.2019 04:00:00 8,4 6,1 - - 28 15 54 29 SW 995,4 30 0 0,0
16.01.2019 03:00:00 9,0 5,1 - - 35 19 55 30 SW 996,1 40 0 0,0

tt = temperature
td = dewpoint
tt -20cm = temperature -20cm
tt -100cm = temperature -100cm
ff = wind speed
fx = gusts
dd = wind direction
ppp = reduced air pressure
vv = visibility
sd = sunshine duration
rr = precipitation

Next stations